Weather History for Beaufort, SC

Change the Weather History Date:

Saturday, June 15, 2013

  Actual Average (KNBC) Record (KNBC)
Temperature  
Mean Temperature 76 °F -  
Max Temperature 82 °F 87 °F 99 °F (1964)
Min Temperature 69 °F 70 °F 56 °F (1933)
Cooling Degree Days 10    
Growing Degree Days 26 (Base 50)    
Moisture  
Dew Point 66 °F    
Average Humidity 71    
Maximum Humidity 100    
Minimum Humidity 48    
Precipitation  
Precipitation 0.00 in - - ()
Sea Level Pressure  
Sea Level Pressure 30.08 in    
Wind  
Wind Speed 4 mph (East)    
Max Wind Speed 12 mph    
Max Gust Speed 16 mph    
Visibility 7 miles    
Events      
Averages and records for this station are not official NWS values.
T = Trace of Precipitation, MM = Missing Value Source: NWS Daily Summary

Daily Weather History Graph

Daily Weather History Graph

Search for Another Location

Airport:

Trip Planner

Search our weather history database for the weather conditions in past years. The results will help you decide how hot, cold, wet, or windy it might be!

Date:

Astronomy

Jun. 15, 2013 Rise Set
Actual Time 6:15 AM EDT 8:31 PM EDT
Civil Twilight 5:46 AM EDT 8:59 PM EDT
Nautical Twilight 5:11 AM EDT 9:34 PM EDT
Astronomical Twilight 4:34 AM EDT 10:12 PM EDT
Moon 12:28 PM EDT (6/15) 12:24 AM EDT (6/15)
Length of Visible Light 15h 13m
Length of Day
14h 16m
Waxing Crescent, 39% of the Moon is Illuminated
Jun 15
Waxing Crescent
Jun 16
First Quarter
Jun 23
Full
Jun 30
Last Quarter
Jul 8
New

Hourly Weather History & Observations

Time (EDT) Temp. Heat Index Dew Point Humidity Pressure Visibility Wind Dir Wind Speed Gust Speed Precip Events Conditions
12:15 AM 71.6 °F - 68.0 °F 88% 30.00 in 7.0 mi Calm Calm - N/A   Mostly Cloudy
12:35 AM 71.6 °F - 68.0 °F 88% 30.00 in 10.0 mi Calm Calm - N/A   Mostly Cloudy
12:55 AM 71.6 °F - 68.0 °F 88% 30.00 in 7.0 mi Calm Calm - N/A   Scattered Clouds
1:15 AM 71.6 °F - 68.0 °F 88% 30.01 in 7.0 mi Calm Calm - N/A   Clear
1:35 AM 71.6 °F - 69.8 °F 94% 30.01 in 7.0 mi Calm Calm - N/A   Clear
1:55 AM 73.4 °F - 69.8 °F 88% 30.01 in 7.0 mi Calm Calm - N/A   Clear
2:15 AM 71.6 °F - 69.8 °F 94% 30.01 in 7.0 mi Calm Calm - N/A   Clear
2:35 AM 71.6 °F - 71.6 °F 100% 30.01 in 7.0 mi Calm Calm - N/A   Clear
2:55 AM 73.4 °F - 71.6 °F 94% 30.01 in 7.0 mi North 4.6 mph - N/A   Clear
3:15 AM 73.4 °F - 71.6 °F 94% 30.01 in 7.0 mi NNE 5.8 mph - N/A   Clear
3:35 AM 71.6 °F - 71.6 °F 100% 30.01 in 7.0 mi North 5.8 mph - N/A   Clear
3:55 AM 73.4 °F - 71.6 °F 94% 30.01 in 10.0 mi NNE 4.6 mph - N/A   Clear
4:15 AM 73.4 °F - 71.6 °F 94% 30.01 in 7.0 mi ENE 5.8 mph - N/A   Clear
4:35 AM 73.4 °F - 71.6 °F 94% 30.01 in 7.0 mi Calm Calm - N/A   Clear
4:55 AM 73.4 °F - 71.6 °F 94% 30.01 in 7.0 mi NNE 4.6 mph - N/A   Clear
5:15 AM 73.4 °F - 71.6 °F 94% 30.01 in 7.0 mi North 8.1 mph - N/A   Clear
5:35 AM 73.4 °F - 71.6 °F 94% 30.01 in 10.0 mi NNE 10.4 mph - N/A   Clear
5:55 AM 71.6 °F - 71.6 °F 100% 30.02 in 7.0 mi Calm Calm - N/A   Clear
6:15 AM 73.4 °F - 69.8 °F 88% 30.03 in 7.0 mi NE 3.5 mph - N/A   Clear
6:35 AM 71.6 °F - 71.6 °F 100% 30.04 in 7.0 mi NE 5.8 mph - N/A   Clear
6:55 AM 73.4 °F - 71.6 °F 94% 30.04 in 7.0 mi NNE 3.5 mph - N/A   Clear
7:15 AM 73.4 °F - 71.6 °F 94% 30.05 in 5.0 mi NE 4.6 mph - N/A   Clear
7:35 AM 75.2 °F - 71.6 °F 89% 30.06 in 5.0 mi NE 4.6 mph - N/A   Clear
7:55 AM 77.0 °F - 71.6 °F 83% 30.07 in 7.0 mi ENE 3.5 mph - N/A   Clear
8:15 AM 77.0 °F - 71.6 °F 83% 30.08 in 7.0 mi ENE 4.6 mph - N/A   Clear
8:35 AM 78.8 °F - 69.8 °F 74% 30.09 in 7.0 mi East 5.8 mph - N/A   Scattered Clouds
8:55 AM 78.8 °F - 68.0 °F 69% 30.10 in 7.0 mi East 8.1 mph - N/A   Clear
9:15 AM 78.8 °F - 66.2 °F 65% 30.11 in 7.0 mi East 6.9 mph - N/A   Scattered Clouds
9:35 AM 80.6 °F 83.2 °F 68.0 °F 65% 30.12 in 7.0 mi ESE 6.9 mph - N/A   Scattered Clouds
9:55 AM 80.6 °F 82.7 °F 66.2 °F 61% 30.11 in 7.0 mi East 5.8 mph - N/A   Scattered Clouds
10:15 AM 80.6 °F 82.3 °F 64.4 °F 58% 30.11 in 10.0 mi East 10.4 mph - N/A   Mostly Cloudy
10:35 AM 80.6 °F 82.3 °F 64.4 °F 58% 30.12 in 7.0 mi East 8.1 mph - N/A   Mostly Cloudy
10:55 AM 82.4 °F 85.4 °F 68.0 °F 62% 30.12 in 7.0 mi East 11.5 mph - N/A   Scattered Clouds
11:15 AM 80.6 °F 82.7 °F 66.2 °F 61% 30.12 in 7.0 mi East 6.9 mph - N/A   Scattered Clouds
11:35 AM 82.4 °F 83.9 °F 64.4 °F 54% 30.13 in 7.0 mi East 8.1 mph - N/A   Scattered Clouds
11:55 AM 82.4 °F 84.6 °F 66.2 °F 58% 30.12 in 7.0 mi SE 6.9 mph - N/A   Scattered Clouds
12:15 PM 82.4 °F 84.6 °F 66.2 °F 58% 30.12 in 7.0 mi ESE 9.2 mph - N/A   Clear
12:35 PM 82.4 °F 83.9 °F 64.4 °F 54% 30.12 in 7.0 mi ESE 9.2 mph - N/A   Scattered Clouds
12:55 PM 82.4 °F 84.6 °F 66.2 °F 58% 30.12 in 7.0 mi East 5.8 mph - N/A   Scattered Clouds
1:15 PM 80.6 °F 82.3 °F 64.4 °F 58% 30.12 in 7.0 mi East 8.1 mph - N/A   Mostly Cloudy
1:35 PM 82.4 °F 83.9 °F 64.4 °F 54% 30.12 in 7.0 mi ESE 8.1 mph 16.1 mph N/A   Mostly Cloudy
1:55 PM 82.4 °F 83.4 °F 62.6 °F 51% 30.11 in 7.0 mi ESE 10.4 mph - N/A   Scattered Clouds
2:15 PM 82.4 °F 83.9 °F 64.4 °F 54% 30.11 in 7.0 mi SE 5.8 mph - N/A   Clear
2:35 PM 82.4 °F 83.4 °F 62.6 °F 51% 30.11 in 7.0 mi SE 6.9 mph - N/A   Clear
2:55 PM 82.4 °F 83.4 °F 62.6 °F 51% 30.10 in 7.0 mi ESE 9.2 mph - N/A   Clear
3:15 PM 82.4 °F 83.4 °F 62.6 °F 51% 30.10 in 7.0 mi East 9.2 mph - N/A   Clear
3:35 PM 82.4 °F 83.4 °F 62.6 °F 51% 30.11 in 10.0 mi ESE 6.9 mph 16.1 mph N/A   Clear
3:55 PM 82.4 °F 82.9 °F 60.8 °F 48% 30.11 in 7.0 mi ESE 5.8 mph - N/A   Clear
4:15 PM 82.4 °F 83.4 °F 62.6 °F 51% 30.10 in 7.0 mi SE 4.6 mph - N/A   Clear
4:35 PM 82.4 °F 82.9 °F 60.8 °F 48% 30.11 in 5.0 mi SE 5.8 mph - N/A   Haze
4:55 PM 82.4 °F 82.9 °F 60.8 °F 48% 30.10 in 7.0 mi East 6.9 mph - N/A   Clear
5:15 PM 82.4 °F 82.9 °F 60.8 °F 48% 30.10 in 7.0 mi ESE 11.5 mph - N/A   Scattered Clouds
5:35 PM 80.6 °F 81.5 °F 60.8 °F 51% 30.10 in 7.0 mi ESE 5.8 mph - N/A   Clear
5:55 PM 80.6 °F 81.5 °F 60.8 °F 51% 30.10 in 7.0 mi East 6.9 mph - N/A   Clear
6:15 PM 80.6 °F 81.5 °F 60.8 °F 51% 30.10 in 7.0 mi East 9.2 mph - N/A   Clear
6:35 PM 80.6 °F 81.5 °F 60.8 °F 51% 30.10 in 7.0 mi ESE 4.6 mph - N/A   Clear
6:55 PM 80.6 °F 81.5 °F 60.8 °F 51% 30.10 in 10.0 mi ESE 5.8 mph - N/A   Clear
7:15 PM 78.8 °F - 60.8 °F 54% 30.10 in 7.0 mi Calm Calm - N/A   Clear
7:35 PM 78.8 °F - 60.8 °F 54% 30.11 in 7.0 mi SE 4.6 mph - N/A   Clear
7:55 PM 77.0 °F - 60.8 °F 57% 30.11 in 7.0 mi Calm Calm - N/A   Clear
8:15 PM 75.2 °F - 60.8 °F 61% 30.11 in 7.0 mi Calm Calm - N/A   Clear
8:35 PM 73.4 °F - 60.8 °F 65% 30.10 in 10.0 mi Calm Calm - N/A   Clear
8:55 PM 71.6 °F - 60.8 °F 69% 30.10 in 7.0 mi Calm Calm - N/A   Clear
9:15 PM 71.6 °F - 60.8 °F 69% 30.10 in 7.0 mi Calm Calm - N/A   Clear
9:35 PM 71.6 °F - 60.8 °F 69% 30.11 in 7.0 mi Calm Calm - N/A   Clear
9:55 PM 69.8 °F - 60.8 °F 73% 30.11 in 7.0 mi SE 3.5 mph - N/A   Clear
10:15 PM 71.6 °F - 62.6 °F 73% 30.12 in 7.0 mi Calm Calm - N/A   Clear
10:35 PM 71.6 °F - 62.6 °F 73% 30.12 in 7.0 mi Calm Calm - N/A   Clear
10:55 PM 69.8 °F - 62.6 °F 78% 30.12 in 7.0 mi Calm Calm - N/A   Clear
11:15 PM 69.8 °F - 62.6 °F 78% 30.13 in 7.0 mi Calm Calm - N/A   Clear
11:35 PM 69.8 °F - 64.4 °F 83% 30.12 in 10.0 mi Calm Calm - N/A   Clear
11:55 PM 69.8 °F - 64.4 °F 83% 30.13 in 7.0 mi Calm Calm - N/A   Clear